Location: Selby
(38.0566°N, 122.2439°W)
Time: 05:26:58
(UTC+00:00)

Cosmos 1025 Rocket - Pass Details

Date: 22 May 2024
Orbit: 590 x 614 km, 82.5° (Epoch: 13 June)

Event Time Altitude Azimuth Distance (km) Brightness Sun altitude
Exits shadow 12:06:55 - 199° (SSW) 2,348 5.5 -8.6°
Reaches altitude 10° 12:07:53 10° 202° (SSW) 1,964 5.1 -8.4°
Maximum altitude 12:12:08 53° 279° (W) 757 3.3 -7.7°
Drops below altitude 10° 12:16:26 10° 357° (N) 1,981 6.1 -7.0°
Sets 12:18:43 0° 2° (N) 2,890 7.0 -6.6°
